sat.trackr.live / text

‹ back to catalog

STARLINK-35383

NORAD 65793 · 2025-218C

PAYLOAD ACTIVE UNKNOWN

§ Identity

Operator
Country
US
Launch date
2025-09-26
Launch site
AFWTR
Launch vehicle
Mass (kg)
RCS (m²)

Purposes: comms

External: N2YO · Heavens-Above · Gunter

§ Orbital elements

Epoch: 2026-09-20T11:52:21.532224Z

Period
93.91 min
Inclination
97.2848°
Eccentricity
0.0001713
Mean motion
15.33448100 rev/d
Perigee alt
464.4 km
Apogee alt
466.7 km
Semi-major
6,843.7 km
B*
3.6819e-4
RAAN
120.8845°
Arg perigee
93.9523°
Mean anomaly
266.1916°
Rev number
5,433

§ Raw data

STARLINK-353831 65793U 25218C   26263.49469366  .00011832  00000+0  36819-3 0  99982 65793  97.2848 120.8845 0001713  93.9523 266.1916 15.33448100 54336

JSON: /api/v1/satellites/65793 · /tle

For live sub-satellite position, see the globe view (requires WebGL).

§ Visibility from observer

Set your observer location to see the next 7 days of passes ≥ 10°. The values pass through the URL so the page stays shareable.

No JS? Fill the form by hand. The geolocation button needs JavaScript.